Tracking 27107 objects as of 21-Mar-2023
HD Live streaming from Space Station
objects crossing your sky now

COSMOS 249 DEB

Track COSMOS 249 DEB now!
10-day predictions


NORAD ID: 3912
Int'l Code: 1968-091BQ
Perigee: 775.4 km
Apogee: 1,993.3 km
Inclination: 62.3 °
Period: 113.3 minutes
Semi major axis: 7755 km
RCS: 0.0292 m2 (small)
Launch date: October 20, 1968
Source: Commonwealth of Independent States (former USSR) (CIS)
Launch site: TYURATAM MISSILE AND SPACE COMPLEX (TTMTR)

Note: This is SATELLITE DEBRIS
Your satellite tracking list
Your tracking list is empty




NASA's NSSDC Master Catalog

Two Line Element Set (TLE):
1 03912U 68091BQ  23077.81042470  .00002572  00000-0  37181-2 0  9992
2 03912  62.2503 211.9621 0785205 179.0077 181.2694 12.71155120494312
Source of the keplerian elements: AFSPC